Wind_Speed
91 96 92 74 43 48 51 61 67 74 78 84 90 91 78 69 55 43 37 29 22 18 16 13 12 15 15 16 15 13 14 16 14 10 9 9 15 12 10 12 18 21 27 37 43 51 61 69 80 81 84 90 103 110
94 94 83 55 45 46 52 64 67 71 80 84 90 86 77 67 58 46 37 32 27 23 17 16 14 13 12 10 11 13 13 14 14 9 8 9 13 15 12 14 17 19 24 31 35 47 54 58 62 68 76 82 95 101
95 93 75 47 44 47 54 62 68 74 79 82 88 80 75 64 60 51 41 36 34 29 22 16 13 16 16 13 9 11 14 12 13 9 8 10 14 13 13 14 16 18 21 25 29 38 43 48 55 59 64 68 79 93
95 91 74 45 44 48 55 65 65 74 77 81 85 73 70 58 53 47 42 40 37 34 31 28 21 16 15 14 12 13 16 18 15 12 10 12 15 17 15 14 13 15 18 20 24 26 31 39 47 52 54 56 67 79
92 83 60 44 46 48 56 61 68 72 75 82 81 69 65 55 49 44 43 43 42 39 38 35 29 21 18 26 23 15 14 18 21 17 15 11 16 22 15 14 16 15 15 18 20 21 25 32 39 45 47 48 55 66
84 77 50 44 46 49 54 61 65 70 72 79 77 64 62 52 45 44 46 46 47 48 48 44 39 32 35 30 23 21 18 18 18 21 19 16 12 20 22 18 16 15 14 12 8 13 18 24 29 34 39 43 50 54
79 62 46 44 45 48 57 53 64 71 71 76 75 59 57 48 42 45 47 49 48 47 50 49 44 44 36 37 34 30 26 22 20 21 23 19 15 14 23 25 21 18 18 15 13 16 15 16 21 27 31 36 45 49
68 58 47 44 46 49 53 61 63 67 72 75 69 59 56 46 39 43 44 44 46 45 47 47 50 51 45 49 50 41 34 33 26 20 19 25 23 18 18 25 29 23 23 23 21 20 18 20 22 27 32 35 40 45
62 46 43 44 45 52 62 60 62 63 73 73 58 55 52 45 38 42 44 44 51 56 51 51 57 59 40 49 58 64 46 29 26 23 20 20 23 25 19 23 26 27 26 27 27 26 24 22 21 24 30 34 39 44
54 45 40 44 45 52 58 56 59 67 72 68 52 52 50 43 38 43 42 39 47 55 56 59 56 60 45 39 49 66 59 40 30 28 27 24 21 22 24 21 26 27 27 28 28 29 27 25 24 25 28 33 37 40
46 44 43 36 43 52 52 55 62 69 70 60 51 50 48 41 38 40 46 41 33 32 45 36 40 41 34 20 51 59 53 47 38 28 26 26 23 18 23 22 23 25 31 27 29 32 32 29 27 28 28 29 32 38
41 37 40 43 50 52 51 57 63 66 67 50 48 48 43 40 37 37 39 43 41 39 37 37 40 45 44 48 51 48 44 39 34 28 23 20 21 15 17 23 22 27 28 30 27 34 37 34 35 32 30 31 31 34
38 36 43 42 42 44 49 59 61 65 60 47 45 46 41 36 36 36 31 39 53 49 46 42 45 48 53 56 50 42 39 34 31 27 28 29 24 18 17 18 24 25 31 30 34 37 39 40 40 38 36 35 33 34
28 33 36 37 44 51 55 56 60 66 48 46 43 43 37 32 35 36 39 46 50 52 47 38 43 45 51 54 48 40 34 30 26 24 23 23 25 24 19 15 16 28 27 29 35 40 44 43 43 43 43 43 41 40
27 30 34 41 47 49 51 54 64 62 44 44 43 40 32 29 31 47 49 46 47 48 50 50 49 52 55 54 47 40 34 27 25 27 25 26 25 22 23 19 17 22 26 26 32 42 42 46 46 49 52 50 51 49
26 30 38 42 48 46 50 57 62 49 43 41 40 33 24 26 19 19 41 47 46 51 52 52 54 54 54 52 44 39 35 30 27 28 28 27 25 23 22 22 19 20 24 26 31 36 45 46 49 51 55 58 58 56
24 26 36 38 48 50 51 59 55 42 42 40 33 25 24 26 28 34 39 49 50 52 58 59 57 57 54 54 49 44 38 34 31 28 27 25 25 25 24 23 22 20 23 25 28 33 38 47 50 53 55 61 61 61
27 30 35 45 43 49 55 55 41 41 39 33 26 23 23 34 40 37 42 47 51 55 61 61 58 55 56 54 52 48 44 39 35 33 29 25 23 19 20 23 24 23 23 25 29 30 35 41 44 55 56 59 65 65
24 33 34 42 47 50 51 45 37 37 29 20 20 20 19 23 34 39 43 48 53 56 62 64 56 50 53 57 54 49 45 40 36 34 33 31 30 29 24 20 19 25 24 24 27 30 30 37 43 49 58 61 62 68
27 33 39 44 48 49 46 33 34 28 21 12 13 28 39 39 41 48 54 52 50 55 60 64 58 52 52 55 54 50 44 41 38 36 35 34 29 23 20 21 23 20 23 28 25 25 29 35 36 45 53 58 70 67
35 38 41 45 45 46 31 30 28 18 12 15 14 15 6 32 42 54 59 60 62 64 66 69 60 57 58 57 56 54 50 46 40 36 35 35 33 29 26 18 20 21 19 23 26 24 29 29 31 36 43 52 65 73
33 36 37 42 43 31 26 25 18 7 8 15 19 26 33 34 46 55 65 70 72 72 71 69 59 59 62 59 57 56 53 49 44 40 40 38 36 34 31 24 20 20 16 16 23 22 17 20 28 32 36 43 56 65
33 38 39 39 30 25 22 20 10 6 11 16 21 14 22 34 48 55 65 72 74 72 67 65 62 62 62 61 61 58 54 49 45 40 36 36 35 32 29 28 21 20 17 12 12 18 17 19 22 19 29 34 41 53
37 36 37 28 24 21 20 11 3 6 13 20 26 27 23 41 54 54 61 68 76 78 72 66 60 62 61 57 55 53 49 45 42 39 36 34 33 32 29 26 24 21 20 15 12 12 12 14 17 22 23 27 37 41
33 34 25 21 21 20 11 5 2 7 11 17 16 18 8 35 51 46 60 72 76 77 72 69 66 68 65 60 56 53 50 47 44 41 38 35 33 30 28 26 22 19 16 15 12 10 9 8 12 16 18 22 25 33
33 25 19 18 19 9 6 2 8 12 15 19 17 16 16 31 30 43 58 68 68 69 68 68 70 67 63 58 55 54 51 48 43 41 37 35 34 32 29 28 28 24 19 15 12 11 8 5 8 14 16 20 24 28
22 18 18 18 6 4 9 15 16 18 12 2 18 18 21 23 34 46 53 58 61 65 65 69 68 63 56 55 55 53 48 44 42 39 36 35 34 32 30 26 24 22 20 15 11 8 7 6 5 8 12 16 19 22
16 15 16 9 3 7 5 5 2 5 8 16 24 30 33 43 48 49 53 57 62 65 66 71 63 55 51 50 52 52 49 43 39 36 33 32 30 30 29 28 25 21 18 16 15 12 10 7 5 4 5 9 14 16
12 11 8 5 4 4 9 12 13 12 11 13 21 18 39 46 49 56 61 63 68 67 68 63 48 48 50 50 49 46 40 36 33 32 31 32 30 29 28 27 26 25 22 19 17 14 12 9 6 4 3 5 8 12
7 4 7 8 3 4 6 5 13 13 15 16 16 31 42 51 57 60 67 67 69 66 65 48 43 44 46 48 48 44 39 35 33 33 33 32 30 29 27 27 27 25 24 22 20 18 16 13 11 7 4 3 5 7
3 2 4 5 6 5 4 1 2 6 5 18 37 43 51 51 56 63 65 67 64 65 53 43 41 43 46 48 47 43 39 34 32 32 31 31 30 28 27 27 27 26 25 23 21 19 17 15 13 11 9 6 4 4
1 3 7 12 8 6 8 13 16 13 13 25 35 49 50 56 61 63 65 61 59 55 42 39 38 42 45 46 44 42 38 35 34 32 31 30 29 29 28 27 27 26 25 24 23 21 20 18 16 14 12 9 7 6
8 7 8 8 7 5 5 14 20 10 10 22 35 44 50 54 55 58 56 52 52 44 37 34 37 40 42 44 44 42 39 37 34 32 31 30 29 29 28 27 27 26 25 24 23 22 20 19 18 16 14 12 10 8
Wind_Direction
330 333 337 335 333 335 336 339 332 336 338 343 344 349 351 353 358 360 0 2 0 352 343 335 330 317 313 306 298 281 294 308 311 310 301 293 300 325 287 283 268 253 238 233 230 230 229 227 229 228 227 221 222 223
332 335 336 332 329 334 334 334 332 339 341 345 346 350 351 357 3 4 4 8 5 358 348 349 334 314 308 325 292 275 287 315 321 314 303 285 300 303 279 273 259 262 249 238 230 231 230 232 233 231 228 221 220 224
335 333 334 328 327 331 337 330 335 339 341 346 348 351 352 357 3 6 7 10 14 13 5 352 353 358 354 338 307 267 285 304 329 343 314 271 271 274 267 265 270 267 255 249 240 236 236 234 234 233 230 224 222 221
330 335 332 322 326 331 334 328 339 339 342 347 350 351 352 357 4 11 18 20 20 17 18 17 14 8 12 354 327 298 286 295 301 315 328 277 251 250 271 269 272 262 257 257 252 243 237 233 232 232 232 225 223 221
329 332 328 318 325 333 330 333 338 339 342 349 349 349 352 356 1 10 16 21 25 25 28 23 15 7 10 10 353 328 304 288 290 296 301 284 261 244 258 261 266 269 269 266 251 238 234 230 229 230 227 222 220 221
329 330 319 320 327 332 327 333 339 337 342 347 349 349 351 354 0 9 11 15 19 19 18 19 18 5 356 351 355 335 330 310 293 280 276 282 277 256 247 243 246 260 254 255 232 214 225 233 233 231 226 218 217 216
328 323 315 322 326 330 324 331 337 337 343 347 347 348 350 353 358 4 8 10 12 15 15 10 12 11 7 1 353 347 346 327 308 296 287 277 271 268 251 242 242 242 234 211 200 200 206 213 223 224 223 217 215 211
326 322 312 318 323 328 323 334 334 337 343 344 345 347 350 353 355 1 4 8 12 13 12 9 9 8 7 2 359 355 342 337 321 308 294 286 280 268 259 242 237 246 235 210 197 188 197 202 211 212 212 212 211 208
324 314 309 317 319 315 321 328 331 340 342 342 343 347 349 352 354 359 2 7 8 5 4 9 6 358 358 356 354 347 345 338 331 313 308 296 282 277 259 248 241 236 235 224 204 189 192 201 204 213 212 210 205 203
318 305 310 314 321 314 328 332 334 340 340 342 342 345 348 350 353 358 359 358 358 355 358 3 1 351 350 337 327 330 331 335 334 325 316 309 299 284 275 255 248 233 230 237 215 197 192 194 199 200 208 209 204 201
311 299 306 312 308 318 329 328 337 337 338 341 344 344 346 350 352 358 5 0 11 353 334 336 340 344 354 335 302 315 322 328 330 326 307 307 303 293 283 274 247 243 223 226 230 207 193 189 189 197 199 206 202 201
305 301 302 308 315 321 321 331 335 336 339 339 343 343 343 348 356 358 1 6 356 343 335 341 342 343 341 334 332 325 321 326 329 324 313 316 304 296 287 272 258 243 236 216 225 222 197 190 191 192 196 192 194 195
298 302 305 316 322 325 325 333 332 338 340 339 341 341 342 351 354 355 355 357 353 354 356 352 347 349 345 340 337 332 329 329 328 334 317 315 312 310 280 271 267 247 241 224 213 223 214 197 194 194 190 188 187 188
301 305 308 314 313 320 328 329 334 338 337 337 338 339 345 353 358 355 358 356 356 355 354 349 343 344 346 344 342 340 335 334 331 319 317 320 311 306 296 275 252 254 246 234 217 213 221 208 203 192 196 189 189 186
287 304 310 306 312 319 323 330 334 335 336 336 337 338 350 358 360 354 357 360 355 353 355 357 357 354 353 349 344 343 345 344 336 329 329 317 314 309 301 294 271 257 255 235 228 217 215 218 210 203 188 191 188 186
295 299 306 312 315 319 326 328 331 333 334 336 336 340 352 356 21 304 354 356 356 355 357 359 358 357 353 350 352 352 349 344 338 334 331 327 322 315 299 292 281 261 253 247 231 226 218 216 214 209 203 193 192 191
307 300 311 309 313 319 327 329 330 331 332 334 336 347 357 3 350 349 348 352 357 355 358 358 357 356 355 356 355 354 353 350 346 343 334 329 322 314 310 300 288 276 259 252 242 229 225 221 215 213 212 205 200 196
287 301 299 305 313 324 327 327 332 332 334 339 348 6 19 35 321 354 355 353 356 357 358 355 353 356 357 357 359 355 353 349 348 343 340 331 320 319 303 296 292 282 269 255 250 242 230 226 221 215 217 214 209 203
290 299 305 316 320 321 326 332 331 333 340 4 22 18 16 357 358 3 359 358 357 354 356 353 350 353 0 359 358 356 353 349 347 344 341 340 335 325 323 309 290 283 280 268 254 248 237 234 228 223 218 217 218 217
280 288 299 310 316 323 326 329 332 338 349 359 27 29 348 350 2 2 3 357 354 355 353 353 350 352 360 1 358 356 354 351 347 343 340 339 336 321 318 316 311 291 276 274 269 256 246 236 231 226 225 215 218 220
287 294 300 314 320 322 328 330 333 349 5 27 45 69 236 0 5 7 3 358 355 357 353 351 350 355 358 357 359 357 354 351 349 347 345 339 337 332 329 331 311 304 291 277 271 260 249 243 230 231 226 221 222 220
292 303 312 318 319 324 328 331 337 3 34 28 35 25 334 353 2 359 358 356 356 356 351 346 349 359 354 354 356 357 352 351 350 348 347 345 344 340 338 342 334 315 302 283 275 277 263 252 238 230 226 219 221 226
302 311 317 319 323 323 328 336 333 356 11 26 21 10 332 339 350 347 349 351 351 351 349 344 350 357 352 352 353 355 350 349 350 349 346 343 342 341 338 335 342 328 327 312 282 271 268 248 251 240 229 227 221 224
307 315 319 323 323 328 336 332 333 27 12 8 6 351 342 348 335 340 345 346 344 346 345 343 346 352 351 351 349 350 350 349 349 350 349 348 346 346 347 346 344 341 332 330 316 292 268 249 243 238 234 224 224 223
318 322 325 323 326 332 331 333 51 3 10 8 20 44 36 300 316 330 335 333 339 339 340 341 347 348 348 349 350 350 351 352 351 353 353 351 351 354 353 352 355 351 344 335 325 307 289 269 242 240 239 236 229 225
321 324 321 325 333 336 331 39 25 10 353 2 5 8 311 342 320 320 322 324 332 334 335 342 347 346 343 344 347 350 349 350 352 353 353 355 358 358 360 0 355 353 348 342 339 330 318 285 245 236 234 232 229 224
321 316 321 330 344 87 81 72 50 36 40 339 339 341 348 330 326 322 324 330 331 335 338 343 342 340 341 344 347 348 349 350 351 352 355 359 360 1 3 2 359 357 356 352 346 335 322 305 270 238 231 232 231 229
313 322 336 360 112 140 95 97 67 341 360 8 2 345 343 340 337 331 328 333 336 340 341 340 339 341 342 347 349 348 347 349 350 353 358 1 1 4 5 7 7 6 8 7 4 358 350 336 316 291 251 232 231 232
322 352 10 34 112 135 79 64 37 10 342 335 3 359 335 342 341 337 336 338 338 341 340 338 340 338 341 347 351 352 352 354 356 358 2 4 6 8 11 12 11 11 13 14 14 13 8 3 352 326 274 241 233 234
327 11 43 41 97 195 183 72 21 8 323 303 312 314 316 318 326 330 335 335 339 337 338 342 342 343 347 354 356 358 358 360 3 6 5 5 6 10 14 19 19 17 16 16 18 18 18 15 9 3 342 291 247 236
341 323 343 315 293 275 273 357 56 313 19 307 294 295 300 314 321 327 330 333 334 335 341 341 343 349 353 355 357 359 359 360 3 6 6 6 7 10 13 16 18 20 20 19 19 22 23 20 16 12 6 358 334 287
15 3 341 344 320 293 336 10 358 350 348 299 292 293 305 312 315 320 326 331 334 336 339 341 348 353 354 357 359 360 1 2 4 5 6 6 6 7 9 13 15 17 16 16 17 19 21 21 21 19 16 8 358 342
264 282 298 315 297 275 301 297 302 308 237 252 272 293 308 311 315 318 326 331 336 338 341 347 351 352 354 358 360 1 2 4 6 8 8 7 8 8 9 11 13 15 15 15 16 18 20 21 21 20 19 17 14 10
Height
10736 10725 10712 10701 10692 10685 10677 10667 10654 10642 10628 10612 10596 10580 10564 10549 10534 10524 10515 10508 10502 10499 10496 10493 10489 10485 10481 10479 10476 10475 10474 10473 10470 10466 10463 10461 10459 10458 10457 10456 10454 10454 10456 10458 10463 10466 10470 10476 10479 10496 10518 10543 10547 10560
10730 10718 10706 10695 10688 10681 10674 10664 10650 10638 10625 10611 10594 10576 10563 10548 10535 10525 10517 10509 10503 10499 10495 10490 10488 10484 10479 10476 10475 10473 10472 10470 10466 10462 10459 10458 10456 10454 10453 10451 10449 10449 10447 10448 10452 10451 10455 10464 10474 10484 10495 10510 10523 10536
10722 10711 10700 10690 10683 10677 10669 10660 10649 10636 10622 10609 10593 10578 10565 10549 10536 10526 10518 10509 10504 10499 10495 10490 10484 10479 10476 10474 10471 10470 10468 10467 10464 10460 10456 10454 10452 10452 10450 10448 10447 10444 10443 10441 10442 10443 10448 10454 10459 10466 10477 10494 10504 10516
10715 10704 10694 10685 10679 10673 10666 10655 10645 10633 10620 10607 10592 10579 10568 10555 10543 10532 10523 10512 10505 10499 10493 10489 10484 10481 10477 10475 10471 10467 10463 10461 10460 10457 10453 10450 10447 10447 10446 10446 10443 10442 10439 10436 10436 10437 10438 10441 10445 10450 10462 10475 10485 10494
10708 10697 10690 10682 10676 10670 10663 10652 10642 10630 10618 10605 10592 10579 10569 10557 10548 10540 10530 10519 10510 10502 10496 10490 10484 10479 10475 10470 10468 10465 10460 10456 10454 10452 10449 10447 10444 10442 10441 10442 10439 10438 10436 10433 10430 10429 10430 10431 10434 10439 10447 10460 10471 10480
10703 10693 10685 10678 10673 10665 10659 10650 10639 10627 10615 10602 10591 10579 10568 10558 10550 10541 10533 10524 10516 10506 10499 10494 10488 10480 10472 10471 10467 10461 10454 10450 10449 10447 10446 10444 10441 10438 10436 10435 10436 10433 10432 10429 10426 10425 10424 10424 10426 10432 10439 10448 10456 10468
10694 10686 10680 10675 10668 10662 10655 10645 10635 10625 10613 10600 10589 10580 10569 10559 10550 10541 10533 10523 10515 10509 10502 10496 10490 10484 10478 10471 10464 10457 10451 10447 10443 10439 10436 10435 10434 10433 10431 10430 10429 10428 10426 10425 10424 10422 10421 10420 10422 10427 10432 10439 10446 10454
10687 10681 10675 10670 10664 10658 10649 10639 10632 10622 10610 10598 10587 10578 10568 10558 10549 10540 10532 10523 10516 10509 10503 10497 10489 10480 10473 10465 10459 10455 10448 10443 10439 10433 10431 10428 10426 10425 10424 10423 10423 10422 10421 10419 10419 10419 10419 10417 10418 10421 10424 10430 10438 10446
10681 10674 10669 10665 10660 10653 10642 10637 10628 10618 10607 10596 10585 10576 10565 10556 10548 10540 10532 10525 10517 10512 10503 10496 10488 10480 10470 10464 10458 10452 10448 10444 10435 10428 10423 10420 10419 10417 10418 10416 10416 10417 10417 10416 10416 10415 10415 10415 10416 10419 10422 10424 10430 10438
10674 10668 10663 10659 10654 10646 10640 10631 10622 10612 10604 10593 10581 10573 10564 10555 10546 10538 10530 10522 10515 10508 10503 10493 10486 10478 10471 10463 10461 10455 10445 10435 10430 10423 10416 10413 10410 10409 10407 10409 10407 10409 10412 10412 10413 10412 10412 10412 10414 10416 10418 10421 10426 10432
10665 10662 10658 10654 10648 10642 10634 10626 10616 10608 10598 10588 10579 10569 10559 10552 10546 10538 10528 10522 10519 10515 10505 10507 10498 10490 10479 10469 10465 10455 10434 10430 10422 10417 10410 10406 10402 10399 10399 10400 10400 10400 10403 10407 10409 10410 10410 10411 10412 10415 10416 10420 10426 10431
10658 10655 10651 10647 10643 10637 10629 10620 10612 10604 10594 10584 10575 10566 10557 10550 10545 10538 10530 10523 10518 10513 10506 10499 10490 10482 10474 10467 10455 10442 10430 10422 10414 10408 10401 10398 10396 10394 10393 10390 10391 10393 10394 10398 10402 10406 10407 10407 10410 10413 10416 10419 10424 10429
10651 10648 10645 10642 10636 10631 10623 10614 10608 10599 10589 10580 10571 10563 10555 10549 10541 10536 10530 10522 10514 10505 10496 10489 10480 10471 10461 10453 10444 10432 10421 10413 10405 10400 10396 10391 10388 10385 10387 10386 10383 10384 10384 10389 10393 10397 10403 10404 10406 10412 10416 10419 10423 10427
10645 10642 10639 10635 10630 10623 10617 10610 10602 10593 10583 10575 10567 10560 10554 10547 10542 10535 10529 10523 10512 10503 10496 10486 10474 10468 10457 10446 10434 10425 10415 10407 10401 10396 10392 10387 10382 10378 10378 10378 10379 10374 10377 10382 10386 10388 10394 10399 10403 10406 10412 10416 10422 10426
10637 10635 10633 10629 10624 10618 10612 10603 10594 10588 10579 10571 10563 10556 10553 10548 10542 10533 10528 10518 10512 10504 10493 10482 10472 10459 10449 10441 10430 10419 10410 10403 10397 10390 10386 10381 10377 10373 10370 10369 10370 10370 10369 10374 10377 10379 10384 10393 10398 10401 10405 10411 10416 10422
10630 10629 10627 10623 10617 10611 10604 10597 10589 10580 10573 10566 10559 10553 10549 10545 10541 10540 10529 10520 10511 10501 10492 10481 10469 10459 10449 10439 10427 10417 10408 10400 10393 10386 10380 10375 10371 10367 10363 10361 10361 10363 10363 10364 10368 10372 10375 10380 10390 10396 10400 10404 10409 10416
10624 10623 10622 10617 10610 10604 10598 10591 10583 10575 10567 10561 10556 10551 10546 10544 10539 10534 10525 10516 10509 10499 10486 10474 10464 10454 10445 10434 10421 10412 10403 10395 10388 10383 10377 10372 10367 10361 10357 10354 10354 10354 10355 10357 10357 10361 10366 10370 10379 10388 10394 10397 10403 10409
10618 10617 10615 10610 10605 10598 10592 10585 10576 10570 10564 10558 10554 10551 10547 10549 10546 10533 10522 10517 10505 10494 10484 10474 10464 10454 10442 10430 10420 10409 10400 10392 10386 10379 10373 10368 10361 10355 10352 10350 10348 10347 10345 10346 10347 10351 10356 10359 10367 10375 10383 10390 10397 10402
10612 10612 10608 10602 10597 10593 10587 10578 10570 10563 10559 10556 10552 10548 10546 10545 10540 10531 10522 10512 10504 10497 10486 10476 10466 10455 10442 10430 10417 10408 10399 10391 10383 10376 10368 10362 10356 10349 10346 10343 10342 10339 10338 10338 10339 10340 10346 10349 10354 10362 10369 10379 10385 10391
10607 10604 10600 10596 10590 10585 10579 10571 10564 10560 10557 10553 10551 10550 10539 10545 10533 10525 10516 10512 10510 10499 10489 10478 10463 10451 10440 10430 10420 10408 10399 10390 10380 10372 10364 10357 10352 10347 10342 10337 10333 10331 10330 10328 10329 10332 10335 10336 10343 10350 10353 10368 10370 10378
10600 10597 10593 10589 10583 10578 10570 10565 10561 10558 10553 10549 10551 10554 10560 10549 10537 10523 10520 10513 10500 10489 10478 10468 10460 10446 10435 10425 10415 10404 10393 10385 10377 10369 10360 10352 10346 10341 10336 10333 10328 10323 10322 10320 10320 10321 10322 10324 10333 10336 10344 10353 10353 10360
10593 10590 10586 10581 10575 10570 10566 10561 10558 10554 10551 10549 10548 10546 10545 10540 10530 10524 10514 10504 10494 10484 10473 10463 10455 10446 10435 10423 10414 10402 10390 10381 10373 10364 10355 10347 10340 10333 10327 10326 10323 10316 10314 10313 10311 10311 10315 10318 10319 10324 10329 10338 10343 10344
10587 10583 10578 10573 10567 10564 10562 10558 10554 10552 10550 10550 10550 10550 10546 10537 10527 10517 10509 10501 10493 10486 10479 10468 10453 10443 10435 10421 10407 10401 10392 10380 10371 10364 10355 10347 10338 10332 10325 10318 10317 10311 10308 10307 10307 10304 10306 10309 10310 10316 10319 10324 10332 10334
10579 10575 10571 10564 10561 10558 10556 10553 10552 10550 10548 10545 10540 10534 10526 10524 10519 10514 10508 10500 10491 10484 10475 10467 10456 10444 10433 10425 10415 10404 10393 10382 10371 10361 10353 10345 10336 10327 10320 10314 10310 10307 10303 10301 10300 10299 10300 10302 10304 10305 10309 10315 10315 10323
10572 10567 10562 10559 10557 10554 10550 10549 10548 10546 10544 10546 10539 10533 10532 10534 10523 10512 10507 10499 10490 10481 10470 10459 10447 10434 10425 10414 10406 10396 10386 10377 10367 10358 10350 10343 10335 10326 10320 10313 10309 10306 10303 10300 10298 10297 10296 10298 10298 10300 10303 10306 10310 10315
10564 10560 10557 10555 10552 10549 10547 10546 10545 10543 10541 10540 10538 10538 10540 10531 10516 10514 10507 10500 10490 10481 10471 10457 10443 10433 10422 10413 10403 10394 10382 10373 10365 10357 10350 10341 10333 10326 10320 10314 10308 10304 10301 10299 10296 10294 10294 10295 10295 10295 10297 10299 10302 10306
10557 10554 10552 10551 10548 10548 10547 10545 10545 10544 10542 10542 10540 10537 10534 10531 10529 10522 10511 10501 10490 10478 10466 10453 10442 10433 10422 10410 10398 10389 10381 10372 10364 10357 10348 10340 10334 10328 10322 10317 10312 10306 10302 10299 10297 10296 10294 10293 10294 10294 10294 10294 10297 10300
10552 10551 10549 10548 10548 10548 10547 10545 10543 10540 10538 10536 10533 10530 10529 10528 10524 10515 10507 10499 10488 10474 10459 10444 10430 10425 10419 10410 10400 10389 10377 10369 10363 10356 10349 10344 10337 10330 10324 10318 10313 10309 10305 10301 10297 10294 10293 10292 10291 10290 10291 10292 10294 10296
10550 10550 10548 10548 10548 10548 10546 10542 10539 10536 10535 10534 10530 10521 10520 10521 10517 10510 10502 10490 10480 10468 10456 10447 10437 10424 10415 10407 10396 10387 10380 10372 10365 10358 10351 10345 10339 10333 10327 10321 10316 10311 10306 10302 10300 10297 10295 10293 10292 10291 10291 10291 10292 10293
10548 10548 10548 10549 10548 10545 10543 10542 10540 10538 10534 10532 10531 10528 10523 10521 10514 10504 10496 10484 10474 10462 10453 10441 10433 10426 10415 10406 10396 10387 10380 10372 10365 10358 10352 10347 10341 10336 10331 10325 10320 10315 10310 10306 10302 10299 10296 10295 10293 10292 10291 10291 10291 10291
10545 10546 10547 10546 10543 10540 10538 10540 10541 10538 10537 10534 10526 10522 10520 10514 10506 10499 10491 10480 10470 10460 10448 10440 10432 10424 10415 10406 10396 10388 10381 10374 10367 10360 10355 10349 10343 10338 10333 10328 10323 10318 10314 10310 10306 10302 10299 10297 10295 10293 10293 10292 10291 10291
10544 10544 10544 10543 10541 10538 10535 10535 10535 10533 10530 10524 10521 10517 10513 10508 10504 10497 10486 10477 10466 10457 10448 10440 10432 10423 10415 10407 10399 10391 10384 10376 10369 10362 10357 10351 10346 10341 10336 10331 10326 10321 10318 10314 10310 10306 10303 10300 10297 10295 10293 10292 10291 10290
10542 10543 10542 10542 10540 10537 10535 10533 10530 10530 10528 10524 10520 10517 10514 10508 10501 10492 10484 10473 10465 10454 10446 10439 10431 10424 10416 10408 10401 10393 10385 10378 10372 10365 10359 10354 10348 10344 10339 10334 10329 10325 10321 10318 10314 10310 10307 10303 10300 10298 10296 10294 10292 10291